Year,Month,Day,Hour,Minute,Value (Times are PST for temperature in C)
2015,04,15,00,00,4.30
2015,04,15,00,01,4.30
2015,04,15,00,02,4.30
2015,04,15,00,03,4.30
2015,04,15,00,04,4.30
2015,04,15,00,05,4.30
2015,04,15,00,06,4.30
2015,04,15,00,07,4.40
2015,04,15,00,08,4.40
2015,04,15,00,09,4.40
2015,04,15,00,10,4.40
2015,04,15,00,11,4.40
2015,04,15,00,12,4.40
2015,04,15,00,13,4.30
2015,04,15,00,14,4.30
2015,04,15,00,15,4.30
2015,04,15,00,16,4.30
2015,04,15,00,17,4.30
2015,04,15,00,18,4.30
2015,04,15,00,19,4.30
2015,04,15,00,20,4.30
2015,04,15,00,21,4.30
2015,04,15,00,22,4.30
2015,04,15,00,23,4.30
2015,04,15,00,24,4.20
2015,04,15,00,25,4.20
2015,04,15,00,26,4.20
2015,04,15,00,27,4.10
2015,04,15,00,28,4.10
2015,04,15,00,29,4.00
2015,04,15,00,30,4.00
2015,04,15,00,31,3.90
2015,04,15,00,32,3.90
2015,04,15,00,33,3.80
2015,04,15,00,34,3.80
2015,04,15,00,35,3.80
2015,04,15,00,36,3.80
2015,04,15,00,37,3.70
2015,04,15,00,38,3.70
2015,04,15,00,39,3.70
2015,04,15,00,40,3.60
2015,04,15,00,41,3.60
2015,04,15,00,42,3.60
2015,04,15,00,43,3.60
2015,04,15,00,44,3.50
2015,04,15,00,45,3.50
2015,04,15,00,46,3.50
2015,04,15,00,47,3.40
2015,04,15,00,48,3.40
2015,04,15,00,49,3.40
2015,04,15,00,50,3.30
2015,04,15,00,51,3.30
2015,04,15,00,52,3.30
2015,04,15,00,53,3.30
2015,04,15,00,54,3.30
2015,04,15,00,55,3.30
2015,04,15,00,56,3.30
2015,04,15,00,57,3.30
2015,04,15,00,58,3.30
2015,04,15,00,59,3.30
2015,04,15,01,00,3.30
2015,04,15,01,01,3.30
2015,04,15,01,02,3.30
2015,04,15,01,03,3.40
2015,04,15,01,04,3.40
2015,04,15,01,05,3.40
2015,04,15,01,06,3.40
2015,04,15,01,07,3.40
2015,04,15,01,08,3.40
2015,04,15,01,09,3.40
2015,04,15,01,10,3.40
2015,04,15,01,11,3.30
2015,04,15,01,12,3.30
2015,04,15,01,13,3.30
2015,04,15,01,14,3.30
2015,04,15,01,15,3.30
2015,04,15,01,16,3.20
2015,04,15,01,17,3.20
2015,04,15,01,18,3.20
2015,04,15,01,19,3.20
2015,04,15,01,20,3.20
2015,04,15,01,21,3.20
2015,04,15,01,22,3.20
2015,04,15,01,23,3.20
2015,04,15,01,24,3.20
2015,04,15,01,25,3.20
2015,04,15,01,26,3.10
2015,04,15,01,27,3.10
2015,04,15,01,28,3.10
2015,04,15,01,29,3.10
2015,04,15,01,30,3.10
2015,04,15,01,31,3.10
2015,04,15,01,32,3.10
2015,04,15,01,33,3.10
2015,04,15,01,34,3.10
2015,04,15,01,35,3.10
2015,04,15,01,36,3.10
2015,04,15,01,37,3.10
2015,04,15,01,38,3.10
2015,04,15,01,39,3.10
2015,04,15,01,40,3.10
2015,04,15,01,41,3.10
2015,04,15,01,42,3.10
2015,04,15,01,43,3.10
2015,04,15,01,44,3.10
2015,04,15,01,45,3.10
2015,04,15,01,46,3.10
2015,04,15,01,47,3.10
2015,04,15,01,48,3.10
2015,04,15,01,49,3.10
2015,04,15,01,50,3.10
2015,04,15,01,51,3.10
2015,04,15,01,52,3.10
2015,04,15,01,53,3.10
2015,04,15,01,54,3.10
2015,04,15,01,55,3.10
2015,04,15,01,56,3.10
2015,04,15,01,57,3.10
2015,04,15,01,58,3.10
2015,04,15,01,59,3.10
2015,04,15,02,00,3.10
2015,04,15,02,01,3.10
2015,04,15,02,02,3.20
2015,04,15,02,03,3.20
2015,04,15,02,04,3.20
2015,04,15,02,05,3.20
2015,04,15,02,06,3.20
2015,04,15,02,07,3.20
2015,04,15,02,08,3.20
2015,04,15,02,09,3.20
2015,04,15,02,10,3.20
2015,04,15,02,11,3.10
2015,04,15,02,12,3.10
2015,04,15,02,13,3.10
2015,04,15,02,14,3.00
2015,04,15,02,15,3.00
2015,04,15,02,16,3.00
2015,04,15,02,17,2.90
2015,04,15,02,18,2.90
2015,04,15,02,19,2.90
2015,04,15,02,20,2.80
2015,04,15,02,21,2.80
2015,04,15,02,22,2.80
2015,04,15,02,23,2.80
2015,04,15,02,24,2.80
2015,04,15,02,25,2.80
2015,04,15,02,26,2.70
2015,04,15,02,27,2.70
2015,04,15,02,28,2.70
2015,04,15,02,29,2.70
2015,04,15,02,30,2.60
2015,04,15,02,31,2.60
2015,04,15,02,32,2.60
2015,04,15,02,33,2.60
2015,04,15,02,34,2.50
2015,04,15,02,35,2.50
2015,04,15,02,36,2.40
2015,04,15,02,37,2.40
2015,04,15,02,38,2.40
2015,04,15,02,39,2.30
2015,04,15,02,40,2.30
2015,04,15,02,41,2.30
2015,04,15,02,42,2.30
2015,04,15,02,43,2.30
2015,04,15,02,44,2.30
2015,04,15,02,45,2.30
2015,04,15,02,46,2.30
2015,04,15,02,47,2.30
2015,04,15,02,48,2.30
2015,04,15,02,49,2.30
2015,04,15,02,50,2.40
2015,04,15,02,51,2.40
2015,04,15,02,52,2.40
2015,04,15,02,53,2.40
2015,04,15,02,54,2.50
2015,04,15,02,55,2.50
2015,04,15,02,56,2.50
2015,04,15,02,57,2.60
2015,04,15,02,58,2.60
2015,04,15,02,59,2.60
2015,04,15,03,00,2.60
2015,04,15,03,01,2.70
2015,04,15,03,02,2.70
2015,04,15,03,03,2.70
2015,04,15,03,04,2.70
2015,04,15,03,05,2.70
2015,04,15,03,06,2.70
2015,04,15,03,07,2.70
2015,04,15,03,08,2.70
2015,04,15,03,09,2.70
2015,04,15,03,10,2.80
2015,04,15,03,11,2.70
2015,04,15,03,12,2.70
2015,04,15,03,13,2.70
2015,04,15,03,14,2.70
2015,04,15,03,15,2.70
2015,04,15,03,16,2.70
2015,04,15,03,17,2.70
2015,04,15,03,18,2.70
2015,04,15,03,19,2.70
2015,04,15,03,20,2.70
2015,04,15,03,21,2.60
2015,04,15,03,22,2.60
2015,04,15,03,23,2.60
2015,04,15,03,24,2.60
2015,04,15,03,25,2.70
2015,04,15,03,26,2.70
2015,04,15,03,27,2.70
2015,04,15,03,28,2.80
2015,04,15,03,29,2.80
2015,04,15,03,30,2.80
2015,04,15,03,31,2.90
2015,04,15,03,32,2.90
2015,04,15,03,33,2.90
2015,04,15,03,34,2.90
2015,04,15,03,35,2.90
2015,04,15,03,36,3.00
2015,04,15,03,37,3.00
2015,04,15,03,38,3.00
2015,04,15,03,39,3.10
2015,04,15,03,40,3.10
2015,04,15,03,41,3.10
2015,04,15,03,42,3.10
2015,04,15,03,43,3.10
2015,04,15,03,44,3.10
2015,04,15,03,45,3.10
2015,04,15,03,46,3.10
2015,04,15,03,47,3.00
2015,04,15,03,48,3.00
2015,04,15,03,49,3.00
2015,04,15,03,50,3.00
2015,04,15,03,51,2.90
2015,04,15,03,52,2.90
2015,04,15,03,53,2.90
2015,04,15,03,54,2.90
2015,04,15,03,55,2.90
2015,04,15,03,56,2.90
2015,04,15,03,57,2.90
2015,04,15,03,58,2.80
2015,04,15,03,59,2.80
2015,04,15,04,00,2.80
2015,04,15,04,01,2.80
2015,04,15,04,02,2.80
2015,04,15,04,03,2.70
2015,04,15,04,04,2.70
2015,04,15,04,05,2.70
2015,04,15,04,06,2.70
2015,04,15,04,07,2.70
2015,04,15,04,08,2.60
2015,04,15,04,09,2.60
2015,04,15,04,10,2.60
2015,04,15,04,11,2.60
2015,04,15,04,12,2.60
2015,04,15,04,13,2.60
2015,04,15,04,14,2.70
2015,04,15,04,15,2.70
2015,04,15,04,16,2.70
2015,04,15,04,17,2.70
2015,04,15,04,18,2.80
2015,04,15,04,19,2.80
2015,04,15,04,20,2.80
2015,04,15,04,21,2.90
2015,04,15,04,22,2.90
2015,04,15,04,23,2.90
2015,04,15,04,24,2.90
2015,04,15,04,25,2.90
2015,04,15,04,26,2.90
2015,04,15,04,27,2.80
2015,04,15,04,28,2.80
2015,04,15,04,29,2.80
2015,04,15,04,30,2.80
2015,04,15,04,31,2.80
2015,04,15,04,32,2.70
2015,04,15,04,33,2.70
2015,04,15,04,34,2.70
2015,04,15,04,35,2.60
2015,04,15,04,36,2.60
2015,04,15,04,37,2.50
2015,04,15,04,38,2.50
2015,04,15,04,39,2.50
2015,04,15,04,40,2.50
2015,04,15,04,41,2.40
2015,04,15,04,42,2.40
2015,04,15,04,43,2.40
2015,04,15,04,44,2.40
2015,04,15,04,45,2.30
2015,04,15,04,46,2.30
2015,04,15,04,47,2.30
2015,04,15,04,48,2.30
2015,04,15,04,49,2.30
2015,04,15,04,50,2.20
2015,04,15,04,51,2.20
2015,04,15,04,52,2.20
2015,04,15,04,53,2.20
2015,04,15,04,54,2.20
2015,04,15,04,55,2.20
2015,04,15,04,56,2.20
2015,04,15,04,57,2.20
2015,04,15,04,58,2.20
2015,04,15,04,59,2.20
2015,04,15,05,00,2.20
2015,04,15,05,01,2.20
2015,04,15,05,02,2.20
2015,04,15,05,03,2.20
2015,04,15,05,04,2.20
2015,04,15,05,05,2.20
2015,04,15,05,06,2.10
2015,04,15,05,07,2.10
2015,04,15,05,08,2.10
2015,04,15,05,09,2.10
2015,04,15,05,10,2.10
2015,04,15,05,11,2.10
2015,04,15,05,12,2.10
2015,04,15,05,13,2.10
2015,04,15,05,14,2.10
2015,04,15,05,15,2.10
2015,04,15,05,16,2.10
2015,04,15,05,17,2.10
2015,04,15,05,18,2.10
2015,04,15,05,19,2.00
2015,04,15,05,20,2.00
2015,04,15,05,21,2.00
2015,04,15,05,22,1.90
2015,04,15,05,23,1.90
2015,04,15,05,24,1.90
2015,04,15,05,25,1.90
2015,04,15,05,26,1.90
2015,04,15,05,27,1.90
2015,04,15,05,28,1.80
2015,04,15,05,29,1.80
2015,04,15,05,30,1.80
2015,04,15,05,31,1.70
2015,04,15,05,32,1.70
2015,04,15,05,33,1.70
2015,04,15,05,34,1.70
2015,04,15,05,35,1.70
2015,04,15,05,36,1.70
2015,04,15,05,37,1.70
2015,04,15,05,38,1.70
2015,04,15,05,39,1.70
2015,04,15,05,40,1.70
2015,04,15,05,41,1.70
2015,04,15,05,42,1.60
2015,04,15,05,43,1.60
2015,04,15,05,44,1.60
2015,04,15,05,45,1.60
2015,04,15,05,46,1.60
2015,04,15,05,47,1.60
2015,04,15,05,48,1.60
2015,04,15,05,49,1.50
2015,04,15,05,50,1.50
2015,04,15,05,51,1.40
2015,04,15,05,52,1.40
2015,04,15,05,53,1.30
2015,04,15,05,54,1.30
2015,04,15,05,55,1.30
2015,04,15,05,56,1.30
2015,04,15,05,57,1.30
2015,04,15,05,58,1.30
2015,04,15,05,59,1.30
2015,04,15,06,00,1.30
2015,04,15,06,01,1.30
2015,04,15,06,02,1.30
2015,04,15,06,03,1.30
2015,04,15,06,04,1.30
2015,04,15,06,05,1.30
2015,04,15,06,06,1.30
2015,04,15,06,07,1.30
2015,04,15,06,08,1.30
2015,04,15,06,09,1.30
2015,04,15,06,10,1.30
2015,04,15,06,11,1.30
2015,04,15,06,12,1.30
2015,04,15,06,13,1.30
2015,04,15,06,14,1.30
2015,04,15,06,15,1.30
2015,04,15,06,16,1.30
2015,04,15,06,17,1.40
2015,04,15,06,18,1.40
2015,04,15,06,19,1.50
2015,04,15,06,20,1.50
2015,04,15,06,21,1.60
2015,04,15,06,22,1.70
2015,04,15,06,23,1.70
2015,04,15,06,24,1.70
2015,04,15,06,25,1.70
2015,04,15,06,26,1.70
2015,04,15,06,27,1.70
2015,04,15,06,28,1.70
2015,04,15,06,29,1.70
2015,04,15,06,30,1.70
2015,04,15,06,31,1.70
2015,04,15,06,32,1.70
2015,04,15,06,33,1.70
2015,04,15,06,34,1.70
2015,04,15,06,35,1.70
2015,04,15,06,36,1.70
2015,04,15,06,37,1.70
2015,04,15,06,38,1.80
2015,04,15,06,39,1.80
2015,04,15,06,40,1.80
2015,04,15,06,41,1.80
2015,04,15,06,42,1.80
2015,04,15,06,43,1.80
2015,04,15,06,44,1.80
2015,04,15,06,45,1.70
2015,04,15,06,46,1.70
2015,04,15,06,47,1.70
2015,04,15,06,48,1.70
2015,04,15,06,49,1.80
2015,04,15,06,50,1.80
2015,04,15,06,51,1.80
2015,04,15,06,52,1.80
2015,04,15,06,53,1.80
2015,04,15,06,54,1.80
2015,04,15,06,55,1.80
2015,04,15,06,56,1.80
2015,04,15,06,57,1.80
2015,04,15,06,58,1.80
2015,04,15,06,59,1.80
2015,04,15,07,00,1.80
2015,04,15,07,01,1.80
2015,04,15,07,02,1.80
2015,04,15,07,03,1.70
2015,04,15,07,04,1.70
2015,04,15,07,05,1.70
2015,04,15,07,06,1.70
2015,04,15,07,07,1.70
2015,04,15,07,08,1.70
2015,04,15,07,09,1.70
2015,04,15,07,10,1.70
2015,04,15,07,11,1.70
2015,04,15,07,12,1.70
2015,04,15,07,13,1.70
2015,04,15,07,14,1.80
2015,04,15,07,15,1.80
2015,04,15,07,16,1.90
2015,04,15,07,17,2.00
2015,04,15,07,18,2.10
2015,04,15,07,19,2.20
2015,04,15,07,20,2.20
2015,04,15,07,21,2.30
2015,04,15,07,22,2.40
2015,04,15,07,23,2.50
2015,04,15,07,24,2.50
2015,04,15,07,25,2.60
2015,04,15,07,26,2.70
2015,04,15,07,27,2.70
2015,04,15,07,28,2.80
2015,04,15,07,29,2.90
2015,04,15,07,30,2.90
2015,04,15,07,31,3.00
2015,04,15,07,32,3.10
2015,04,15,07,33,3.20
2015,04,15,07,34,3.20
2015,04,15,07,35,3.30
2015,04,15,07,36,3.30
2015,04,15,07,37,3.40
2015,04,15,07,38,3.40
2015,04,15,07,39,3.40
2015,04,15,07,40,3.50
2015,04,15,07,41,3.50
2015,04,15,07,42,3.60
2015,04,15,07,43,3.60
2015,04,15,07,44,3.60
2015,04,15,07,45,3.70
2015,04,15,07,46,3.70
2015,04,15,07,47,3.80
2015,04,15,07,48,3.90
2015,04,15,07,49,4.00
2015,04,15,07,50,4.10
2015,04,15,07,51,4.20
2015,04,15,07,52,4.30
2015,04,15,07,53,4.40
2015,04,15,07,54,4.50
2015,04,15,07,55,4.70
2015,04,15,07,56,4.80
2015,04,15,07,57,5.00
2015,04,15,07,58,5.10
2015,04,15,07,59,5.30
2015,04,15,08,00,5.40
2015,04,15,08,01,5.40
2015,04,15,08,02,5.50
2015,04,15,08,03,5.50
2015,04,15,08,04,5.50
2015,04,15,08,05,5.50
2015,04,15,08,06,5.60
2015,04,15,08,07,5.60
2015,04,15,08,08,5.60
2015,04,15,08,09,5.60
2015,04,15,08,10,5.50
2015,04,15,08,11,5.50
2015,04,15,08,12,5.40
2015,04,15,08,13,5.40
2015,04,15,08,14,5.40
2015,04,15,08,15,5.40
2015,04,15,08,16,5.50
2015,04,15,08,17,5.50
2015,04,15,08,18,5.50
2015,04,15,08,19,5.60
2015,04,15,08,20,5.60
2015,04,15,08,21,5.60
2015,04,15,08,22,5.70
2015,04,15,08,23,5.70
2015,04,15,08,24,5.80
2015,04,15,08,25,5.80
2015,04,15,08,26,5.90
2015,04,15,08,27,5.90
2015,04,15,08,28,6.00
2015,04,15,08,29,6.00
2015,04,15,08,30,6.10
2015,04,15,08,31,6.20
2015,04,15,08,32,6.20
2015,04,15,08,33,6.30
2015,04,15,08,34,6.40
2015,04,15,08,35,6.40
2015,04,15,08,36,6.50
2015,04,15,08,37,6.50
2015,04,15,08,38,6.60
2015,04,15,08,39,6.60
2015,04,15,08,40,6.60
2015,04,15,08,41,6.70
2015,04,15,08,42,6.70
2015,04,15,08,43,6.80
2015,04,15,08,44,6.90
2015,04,15,08,45,7.00
2015,04,15,08,46,7.00
2015,04,15,08,47,7.10
2015,04,15,08,48,7.20
2015,04,15,08,49,7.20
2015,04,15,08,50,7.20
2015,04,15,08,51,7.20
2015,04,15,08,52,7.30
2015,04,15,08,53,7.30
2015,04,15,08,54,7.30
2015,04,15,08,55,7.30
2015,04,15,08,56,7.40
2015,04,15,08,57,7.40
2015,04,15,08,58,7.40
2015,04,15,08,59,7.50
2015,04,15,09,00,7.60
2015,04,15,09,01,7.60
2015,04,15,09,02,7.70
2015,04,15,09,03,7.80
2015,04,15,09,04,7.80
2015,04,15,09,05,7.80
2015,04,15,09,06,7.80
2015,04,15,09,07,7.90
2015,04,15,09,08,7.90
2015,04,15,09,09,7.90
2015,04,15,09,10,8.00
2015,04,15,09,11,8.10
2015,04,15,09,12,8.20
2015,04,15,09,13,8.40
2015,04,15,09,14,8.40
2015,04,15,09,15,8.50
2015,04,15,09,16,8.50
2015,04,15,09,17,8.60
2015,04,15,09,18,8.60
2015,04,15,09,19,8.70
2015,04,15,09,20,8.80
2015,04,15,09,21,8.80
2015,04,15,09,22,8.80
2015,04,15,09,23,8.80
2015,04,15,09,24,8.80
2015,04,15,09,25,8.90
2015,04,15,09,26,8.90
2015,04,15,09,27,8.90
2015,04,15,09,28,8.90
2015,04,15,09,29,8.80
2015,04,15,09,30,8.80
2015,04,15,09,31,8.80
2015,04,15,09,32,8.70
2015,04,15,09,33,8.70
2015,04,15,09,34,8.60
2015,04,15,09,35,8.50
2015,04,15,09,36,8.40
2015,04,15,09,37,8.40
2015,04,15,09,38,8.40
2015,04,15,09,39,8.30
2015,04,15,09,40,8.30
2015,04,15,09,41,8.30
2015,04,15,09,42,8.40
2015,04,15,09,43,8.50
2015,04,15,09,44,8.60
2015,04,15,09,45,8.60
2015,04,15,09,46,8.60
2015,04,15,09,47,8.70
2015,04,15,09,48,8.80
2015,04,15,09,49,8.80
2015,04,15,09,50,8.90
2015,04,15,09,51,8.90
2015,04,15,09,52,8.90
2015,04,15,09,53,8.90
2015,04,15,09,54,8.80
2015,04,15,09,55,8.80
2015,04,15,09,56,8.80
2015,04,15,09,57,8.80
2015,04,15,09,58,8.80
2015,04,15,09,59,8.80
2015,04,15,10,00,8.80
2015,04,15,10,01,8.80
2015,04,15,10,02,8.70
2015,04,15,10,03,8.70
2015,04,15,10,04,8.80
2015,04,15,10,05,8.80
2015,04,15,10,06,8.80
2015,04,15,10,07,8.80
2015,04,15,10,08,8.80
2015,04,15,10,09,8.80
2015,04,15,10,10,8.80
2015,04,15,10,11,8.80
2015,04,15,10,12,8.80
2015,04,15,10,13,8.90
2015,04,15,10,14,8.90
2015,04,15,10,15,8.90
2015,04,15,10,16,9.00
2015,04,15,10,17,8.90
2015,04,15,10,18,8.90
2015,04,15,10,19,8.90
2015,04,15,10,20,8.90
2015,04,15,10,21,8.90
2015,04,15,10,22,9.00
2015,04,15,10,23,9.00
2015,04,15,10,24,9.10
2015,04,15,10,25,9.00
2015,04,15,10,26,9.00
2015,04,15,10,27,8.90
2015,04,15,10,28,8.90
2015,04,15,10,29,8.80
2015,04,15,10,30,8.80
2015,04,15,10,31,8.80
2015,04,15,10,32,8.80
2015,04,15,10,33,8.80
2015,04,15,10,34,8.90
2015,04,15,10,35,9.00
2015,04,15,10,36,9.10
2015,04,15,10,37,9.20
2015,04,15,10,38,9.30
2015,04,15,10,39,9.30
2015,04,15,10,40,9.40
2015,04,15,10,41,9.40
2015,04,15,10,42,9.30
2015,04,15,10,43,9.30
2015,04,15,10,44,9.30
2015,04,15,10,45,9.30
2015,04,15,10,46,9.40
2015,04,15,10,47,9.50
2015,04,15,10,48,9.60
2015,04,15,10,49,9.60
2015,04,15,10,50,9.60
2015,04,15,10,51,9.70
2015,04,15,10,52,9.80
2015,04,15,10,53,9.80
2015,04,15,10,54,9.80
2015,04,15,10,55,9.80
2015,04,15,10,56,9.90
2015,04,15,10,57,9.90
2015,04,15,10,58,10.00
2015,04,15,10,59,10.10
2015,04,15,11,00,10.10
2015,04,15,11,01,10.00
2015,04,15,11,02,9.90
2015,04,15,11,03,9.80
2015,04,15,11,04,9.70
2015,04,15,11,05,9.70
2015,04,15,11,06,9.60
2015,04,15,11,07,9.60
2015,04,15,11,08,9.60
2015,04,15,11,09,9.60
2015,04,15,11,10,9.60
2015,04,15,11,11,9.50
2015,04,15,11,12,9.50
2015,04,15,11,13,9.40
2015,04,15,11,14,9.40
2015,04,15,11,15,9.40
2015,04,15,11,16,9.30
2015,04,15,11,17,9.40
2015,04,15,11,18,9.50
2015,04,15,11,19,9.60
2015,04,15,11,20,9.70
2015,04,15,11,21,9.70
2015,04,15,11,22,9.80
2015,04,15,11,23,9.80
2015,04,15,11,24,9.90
2015,04,15,11,25,10.10
2015,04,15,11,26,10.20
2015,04,15,11,27,10.30
2015,04,15,11,28,10.40
2015,04,15,11,29,10.40
2015,04,15,11,30,10.40
2015,04,15,11,31,10.30
2015,04,15,11,32,10.30
2015,04,15,11,33,10.20
2015,04,15,11,34,10.20
2015,04,15,11,35,10.20
2015,04,15,11,36,10.20
2015,04,15,11,37,10.30
2015,04,15,11,38,10.30
2015,04,15,11,39,10.30
2015,04,15,11,40,10.30
2015,04,15,11,41,10.30
2015,04,15,11,42,10.30
2015,04,15,11,43,10.30
2015,04,15,11,44,10.30
2015,04,15,11,45,10.20
2015,04,15,11,46,10.20
2015,04,15,11,47,10.30
2015,04,15,11,48,10.20
2015,04,15,11,49,10.20
2015,04,15,11,50,10.20
2015,04,15,11,51,10.10
2015,04,15,11,52,10.10
2015,04,15,11,53,10.10
2015,04,15,11,54,10.10
2015,04,15,11,55,10.10
2015,04,15,11,56,10.10
2015,04,15,11,57,10.20
2015,04,15,11,58,10.30
2015,04,15,11,59,10.40
2015,04,15,12,00,10.40
2015,04,15,12,01,10.50
2015,04,15,12,02,10.50
2015,04,15,12,03,10.50
2015,04,15,12,04,10.60
2015,04,15,12,05,10.60
2015,04,15,12,06,10.70
2015,04,15,12,07,10.80
2015,04,15,12,08,10.80
2015,04,15,12,09,10.80
2015,04,15,12,10,10.80
2015,04,15,12,11,10.70
2015,04,15,12,12,10.70
2015,04,15,12,13,10.70
2015,04,15,12,14,10.70
2015,04,15,12,15,10.70
2015,04,15,12,16,10.70
2015,04,15,12,17,10.80
2015,04,15,12,18,10.80
2015,04,15,12,19,10.80
2015,04,15,12,20,10.80
2015,04,15,12,21,10.80
2015,04,15,12,22,10.80
2015,04,15,12,23,10.90
2015,04,15,12,24,10.90
2015,04,15,12,25,10.90
2015,04,15,12,26,10.90
2015,04,15,12,27,10.90
2015,04,15,12,28,10.90
2015,04,15,12,29,11.00
2015,04,15,12,30,10.90
2015,04,15,12,31,10.80
2015,04,15,12,32,10.80
2015,04,15,12,33,10.80
2015,04,15,12,34,10.80
2015,04,15,12,35,10.80
2015,04,15,12,36,10.80
2015,04,15,12,37,10.80
2015,04,15,12,38,10.80
2015,04,15,12,39,10.70
2015,04,15,12,40,10.60
2015,04,15,12,41,10.60
2015,04,15,12,42,10.60
2015,04,15,12,43,10.70
2015,04,15,12,44,10.60
2015,04,15,12,45,10.50
2015,04,15,12,46,10.40
2015,04,15,12,47,10.30
2015,04,15,12,48,10.30
2015,04,15,12,49,10.20
2015,04,15,12,50,10.10
2015,04,15,12,51,10.00
2015,04,15,12,52,10.00
2015,04,15,12,53,10.00
2015,04,15,12,54,10.10
2015,04,15,12,55,10.20
2015,04,15,12,56,10.30
2015,04,15,12,57,10.30
2015,04,15,12,58,10.30
2015,04,15,12,59,10.40
2015,04,15,13,00,10.40
2015,04,15,13,01,10.50
2015,04,15,13,02,10.50
2015,04,15,13,03,10.50
2015,04,15,13,04,10.50
2015,04,15,13,05,10.60
2015,04,15,13,06,10.60
2015,04,15,13,07,10.60
2015,04,15,13,08,10.60
2015,04,15,13,09,10.70
2015,04,15,13,10,10.70
2015,04,15,13,11,10.60
2015,04,15,13,12,10.60
2015,04,15,13,13,10.60
2015,04,15,13,14,10.60
2015,04,15,13,15,10.60
2015,04,15,13,16,10.60
2015,04,15,13,17,10.70
2015,04,15,13,18,10.70
2015,04,15,13,19,10.70
2015,04,15,13,20,10.70
2015,04,15,13,21,10.80
2015,04,15,13,22,10.80
2015,04,15,13,23,10.80
2015,04,15,13,24,10.80
2015,04,15,13,25,10.80
2015,04,15,13,26,10.80
2015,04,15,13,27,10.80
2015,04,15,13,28,10.80
2015,04,15,13,29,10.80
2015,04,15,13,30,10.80
2015,04,15,13,31,10.70
2015,04,15,13,32,10.70
2015,04,15,13,33,10.60
2015,04,15,13,34,10.50
2015,04,15,13,35,10.40
2015,04,15,13,36,10.40
2015,04,15,13,37,10.50
2015,04,15,13,38,10.50
2015,04,15,13,39,10.60
2015,04,15,13,40,10.60
2015,04,15,13,41,10.70
2015,04,15,13,42,10.80
2015,04,15,13,43,10.80
2015,04,15,13,44,10.70
2015,04,15,13,45,10.70
2015,04,15,13,46,10.70
2015,04,15,13,47,10.60
2015,04,15,13,48,10.60
2015,04,15,13,49,10.60
2015,04,15,13,50,10.60
2015,04,15,13,51,10.60
2015,04,15,13,52,10.60
2015,04,15,13,53,10.60
2015,04,15,13,54,10.60
2015,04,15,13,55,10.70
2015,04,15,13,56,10.60
2015,04,15,13,57,10.70
2015,04,15,13,58,10.70
2015,04,15,13,59,10.70
2015,04,15,14,00,10.80
2015,04,15,14,01,10.90
2015,04,15,14,02,10.80
2015,04,15,14,03,10.80
2015,04,15,14,04,10.80
2015,04,15,14,05,10.80
2015,04,15,14,06,10.80
2015,04,15,14,07,10.80
2015,04,15,14,08,10.80
2015,04,15,14,09,10.80
2015,04,15,14,10,10.90
2015,04,15,14,11,10.90
2015,04,15,14,12,11.00
2015,04,15,14,13,11.00
2015,04,15,14,14,11.00
2015,04,15,14,15,10.90
2015,04,15,14,16,10.90
2015,04,15,14,17,10.80
2015,04,15,14,18,10.70
2015,04,15,14,19,10.70
2015,04,15,14,20,10.70
2015,04,15,14,21,10.70
2015,04,15,14,22,10.70
2015,04,15,14,23,10.70
2015,04,15,14,24,10.70
2015,04,15,14,25,10.80
2015,04,15,14,26,10.80
2015,04,15,14,27,10.90
2015,04,15,14,28,11.10
2015,04,15,14,29,11.10
2015,04,15,14,30,11.20
2015,04,15,14,31,11.20
2015,04,15,14,32,11.20
2015,04,15,14,33,11.20
2015,04,15,14,34,11.20
2015,04,15,14,35,11.20
2015,04,15,14,36,11.20
2015,04,15,14,37,11.30
2015,04,15,14,38,11.40
2015,04,15,14,39,11.40
2015,04,15,14,40,11.40
2015,04,15,14,41,11.40
2015,04,15,14,42,11.40
2015,04,15,14,43,11.30
2015,04,15,14,44,11.30
2015,04,15,14,45,11.30
2015,04,15,14,46,11.30
2015,04,15,14,47,11.30
2015,04,15,14,48,11.40
2015,04,15,14,49,11.40
2015,04,15,14,50,11.40
2015,04,15,14,51,11.40
2015,04,15,14,52,11.50
2015,04,15,14,53,11.50
2015,04,15,14,54,11.50
2015,04,15,14,55,11.40
2015,04,15,14,56,11.30
2015,04,15,14,57,11.20
2015,04,15,14,58,11.30
2015,04,15,14,59,11.30
2015,04,15,15,00,11.20
2015,04,15,15,01,11.20
2015,04,15,15,02,11.30
2015,04,15,15,03,11.30
2015,04,15,15,04,11.30
2015,04,15,15,05,11.40
2015,04,15,15,06,11.50
2015,04,15,15,07,11.50
2015,04,15,15,08,11.50
2015,04,15,15,09,11.50
2015,04,15,15,10,11.30
2015,04,15,15,11,11.20
2015,04,15,15,12,11.20
2015,04,15,15,13,11.20
2015,04,15,15,14,11.20
2015,04,15,15,15,11.10
2015,04,15,15,16,11.10
2015,04,15,15,17,11.10
2015,04,15,15,18,11.10
2015,04,15,15,19,11.10
2015,04,15,15,20,11.10
2015,04,15,15,21,11.20
2015,04,15,15,22,11.20
2015,04,15,15,23,11.20
2015,04,15,15,24,11.10
2015,04,15,15,25,11.00
2015,04,15,15,26,11.00
2015,04,15,15,27,11.10
2015,04,15,15,28,11.10
2015,04,15,15,29,11.20
2015,04,15,15,30,11.20
2015,04,15,15,31,11.20
2015,04,15,15,32,11.20
2015,04,15,15,33,11.10
2015,04,15,15,34,11.10
2015,04,15,15,35,11.10
2015,04,15,15,36,11.20
2015,04,15,15,37,11.10
2015,04,15,15,38,11.10
2015,04,15,15,39,11.10
2015,04,15,15,40,11.00
2015,04,15,15,41,11.00
2015,04,15,15,42,11.00
2015,04,15,15,43,11.00
2015,04,15,15,44,11.00
2015,04,15,15,45,11.10
2015,04,15,15,46,11.10
2015,04,15,15,47,11.10
2015,04,15,15,48,11.10
2015,04,15,15,49,11.10
2015,04,15,15,50,11.20
2015,04,15,15,51,11.20
2015,04,15,15,52,11.20
2015,04,15,15,53,11.20
2015,04,15,15,54,11.20
2015,04,15,15,55,11.20
2015,04,15,15,56,11.20
2015,04,15,15,57,11.20
2015,04,15,15,58,11.30
2015,04,15,15,59,11.30
2015,04,15,16,00,11.40
2015,04,15,16,01,11.40
2015,04,15,16,02,11.40
2015,04,15,16,03,11.30
2015,04,15,16,04,11.30
2015,04,15,16,05,11.20
2015,04,15,16,06,11.20
2015,04,15,16,07,11.20
2015,04,15,16,08,11.20
2015,04,15,16,09,11.20
2015,04,15,16,10,11.20
2015,04,15,16,11,11.30
2015,04,15,16,12,11.30
2015,04,15,16,13,11.40
2015,04,15,16,14,11.50
2015,04,15,16,15,11.60
2015,04,15,16,16,11.70
2015,04,15,16,17,11.80
2015,04,15,16,18,11.80
2015,04,15,16,19,11.90
2015,04,15,16,20,11.80
2015,04,15,16,21,11.80
2015,04,15,16,22,11.80
2015,04,15,16,23,11.70
2015,04,15,16,24,11.80
2015,04,15,16,25,11.80
2015,04,15,16,26,11.90
2015,04,15,16,27,11.90
2015,04,15,16,28,11.90
2015,04,15,16,29,11.90
2015,04,15,16,30,11.90
2015,04,15,16,31,12.00
2015,04,15,16,32,12.10
2015,04,15,16,33,12.10
2015,04,15,16,34,12.10
2015,04,15,16,35,12.00
2015,04,15,16,36,11.90
2015,04,15,16,37,11.80
2015,04,15,16,38,11.80
2015,04,15,16,39,11.90
2015,04,15,16,40,11.90
2015,04,15,16,41,11.80
2015,04,15,16,42,11.80
2015,04,15,16,43,11.70
2015,04,15,16,44,11.70
2015,04,15,16,45,11.60
2015,04,15,16,46,11.50
2015,04,15,16,47,11.50
2015,04,15,16,48,11.50
2015,04,15,16,49,11.50
2015,04,15,16,50,11.40
2015,04,15,16,51,11.30
2015,04,15,16,52,11.30
2015,04,15,16,53,11.30
2015,04,15,16,54,11.30
2015,04,15,16,55,11.30
2015,04,15,16,56,11.30
2015,04,15,16,57,11.40
2015,04,15,16,58,11.40
2015,04,15,16,59,11.30
2015,04,15,17,00,11.30
2015,04,15,17,01,11.30
2015,04,15,17,02,11.30
2015,04,15,17,03,11.30
2015,04,15,17,04,11.30
2015,04,15,17,05,11.20
2015,04,15,17,06,11.20
2015,04,15,17,07,11.20
2015,04,15,17,08,11.20
2015,04,15,17,09,11.20
2015,04,15,17,10,11.20
2015,04,15,17,11,11.10
2015,04,15,17,12,11.10
2015,04,15,17,13,11.20
2015,04,15,17,14,11.20
2015,04,15,17,15,11.10
2015,04,15,17,16,11.10
2015,04,15,17,17,11.10
2015,04,15,17,18,11.00
2015,04,15,17,19,11.00
2015,04,15,17,20,11.10
2015,04,15,17,21,11.10
2015,04,15,17,22,11.20
2015,04,15,17,23,11.20
2015,04,15,17,24,11.20
2015,04,15,17,25,11.30
2015,04,15,17,26,11.30
2015,04,15,17,27,11.30
2015,04,15,17,28,11.40
2015,04,15,17,29,11.40
2015,04,15,17,30,11.40
2015,04,15,17,31,11.40
2015,04,15,17,32,11.40
2015,04,15,17,33,11.40
2015,04,15,17,34,11.40
2015,04,15,17,35,11.40
2015,04,15,17,36,11.40
2015,04,15,17,37,11.40
2015,04,15,17,38,11.30
2015,04,15,17,39,11.30
2015,04,15,17,40,11.30
2015,04,15,17,41,11.30
2015,04,15,17,42,11.30
2015,04,15,17,43,11.30
2015,04,15,17,44,11.30
2015,04,15,17,45,11.30
2015,04,15,17,46,11.30
2015,04,15,17,47,11.30
2015,04,15,17,48,11.20
2015,04,15,17,49,11.20